Regional Weather Roundup
Issued by NWS

Home | Current Version | Previous Version | Text Only | Print | Product List | Glossary On
Versions: 1 2 3 4 5 6 7 8 9 10 11 12 13 14 15 16 17 18 19 20 21 22 23 24 25 26 27 28 29 30 31 32 33 34 35 36 37 38 39 40 41 42 43 44 45 46 47 48 49 50
000
ASUS46 KSEW 061510
RWRWA

WASHINGTON REGIONAL WEATHER ROUNDUP
NATIONAL WEATHER SERVICE SEATTLE WA
700 AM PST SAT FEB 06 2016

NOTE:"FAIR" INDICATES FEW OR NO CLOUDS BELOW 12,000 FEET WITH NO
SIGNIFICANT WEATHER AND/OR OBSTRUCTIONS TO VISIBILITY.

WAZ505-507>509-061600-
SEATTLE, TACOMA, EVERETT, AND VICINITY

CITY           SKY/WX    TMP DP  RH WIND       PRES   REMARKS
EVERETT        CLOUDY    42  38  85 S9        30.40R
BOEING FIELD   PTCLDY    45  40  82 S12G20    30.40R
RENTON         MOCLDY    46  40  79 SE8       30.42R
SEATAC AIRPORT MOCLDY    43  39  86 S18       30.40R
JBLM-MCCHORD   MOCLDY    41  41 100 S8        30.44R
PUYALLUP       CLOUDY    43  43 100 CALM      30.45R
BREMERTON      CLOUDY    39  39 100 SW8       30.45R
JBLM-FT LEWIS  MOCLDY    42  41  99 MISG      30.44R
TACOMA NARROWS PTCLDY    43  40  89 S12       30.43R
$$

WAZ001-503-506-510-514-515-061600-
NORTH INTERIOR

CITY           SKY/WX    TMP DP  RH WIND       PRES   REMARKS
BELLINGHAM     CLOUDY    45  38  76 S7        30.36R
FRIDAY HARBOR  MOCLDY    44  37  76 S8        30.38R
EASTSOUND      CLEAR     43  37  81 SW7       30.36R
PORT ANGELES   MOCLDY    41  36  82 SW3       30.38R
EDIZ HOOK      CLOUDY    42  38  86 SW8       30.39R
PORT TOWNSEND  MOCLDY    30  32 100 SE5       30.40R FOG
NAS WHIDBEY    MOCLDY    41  39  93 E5        30.43R
ARLINGTON      CLOUDY    41  36  81 S6        30.43R
BURLINGTON     CLOUDY    43  41  93 SE5       30.40R
$$

WAZ020-022-039-040-504-511-512-061600-
SOUTHWEST INTERIOR

CITY           SKY/WX    TMP DP  RH WIND       PRES   REMARKS
SHELTON        MOCLDY    41  38  89 SW6       30.40R
OLYMPIA        LGT RAIN  42  39  89 S5        30.45R
CHEHALIS       CLOUDY    41  41 100 CALM      30.45R
KELSO          MOCLDY    43  37  81 SE8       30.49S
VANCOUVER      MOCLDY    38  37  97 CALM      30.47R
SCAPPOOSE, OR  MOCLDY    35  34  96 CALM      30.47R FOG
PORTLAND, OR   CLOUDY    45  42  89 CALM      30.47R
$$

WAZ021-516-517-061600-
WASHINGTON COAST

CITY           SKY/WX    TMP DP  RH WIND       PRES   REMARKS
FORKS          MOCLDY    40  38  93 E3        30.39R
HOQUIAM        CLOUDY    47  41  80 W9        30.42R
ASTORIA, OR    CLOUDY    47  39  74 SW3       30.44R
$$

WAZ019-023-024-040-518-519-061600-
CASCADE MOUNTAINS AND COLUMBIA GORGE

CITY           SKY/WX    TMP DP  RH WIND       PRES   REMARKS
STAMPEDE PASS  NOT AVBL
TROUTDALE, OR  MOCLDY    40  38  93 CALM      30.47R
THE DALLES, OR PTCLDY    45  33  63 W13       30.40R
$$

WAZ026-027-041>044-520-521-061600-
EAST SLOPES

CITY           SKY/WX    TMP DP  RH WIND       PRES   REMARKS
OMAK           PTCLDY    33  25  72 S6        30.25R
WENATCHEE      CLEAR     39  30  70 VRB5      30.26R
ELLENSBURG     PTCLDY    35  29  78 NW14      30.28R WCI  26
YAKIMA         CLEAR     36  26  67 CALM      30.31R
$$

WAZ028-034-035-061600-
COLUMBIA BASIN

CITY           SKY/WX    TMP DP  RH WIND       PRES   REMARKS
EPHRATA        PTCLDY    35  28  75 SW9       30.27R
MOSES LAKE     CLEAR     37  30  75 S10       30.29R
PASCO          MOCLDY    44  33  65 SW17      30.36R
HERMISTON, OR  MOCLDY    41  33  73 S13       30.38R
$$

WAZ036>038-061600-
NORTHEAST WASHINGTON

CITY           SKY/WX    TMP DP  RH WIND       PRES   REMARKS
SPOKANE GEIGER MOCLDY    34  28  79 SW20      30.24R WCI  23
SPOKANE FELTS  PTCLDY    37  29  72 SW8       30.26R
FAIRCHILD AFB  PTCLDY    33  30  92 SW13      30.25R WCI  23
COEURDALENE,ID PTCLDY    36  28  75 W12       30.23R
DEER PARK      PTCLDY    33  28  81 S12       30.24R WCI  24
$$

WAZ029>033-061600-
SOUTHEAST WASHINGTON

CITY           SKY/WX    TMP DP  RH WIND       PRES   REMARKS
PULLMAN        CLOUDY    37  29  72 W22G32    30.29R
LEWISTON, ID   MOCLDY    47  26  44 W22G35    30.31R
WALLA WALLA    CLOUDY    43  32  65 SW17      30.37S
PENDLETON, OR  CLOUDY    41  31  67 S8        30.38R
$$



USA.gov is the U.S. government's official web portal to all federal, state and local government web resources and services.